W1MDM-13 Weather Reports


time (UTC)temp
C
wind
direction
speed
KPH
gust
KPH
rain 1hr
cm
rain 24hr
cm
rain mn
cm
humidity
%
barometer
mb
20260506175503 27 78 3.2 11.3 0.00 0.00 0.00 83 1011.3
20260506175004 26 73 3.2 8.0 0.00 0.00 0.00 85 1011.3
20260506174503 26 72 3.2 8.0 0.00 0.00 0.00 85 1011.4
20260506174003 26 74 3.2 8.0 0.00 0.00 0.00 85 1011.6
20260506173503 26 75 3.2 8.0 0.00 0.00 0.00 85 1011.6
20260506173003 26 77 3.2 8.0 0.00 0.00 0.00 86 1011.6
20260506172217 26 77 3.2 8.0 0.00 0.00 0.00 86 1011.7
20260506171504 25 80 3.2 8.0 0.00 0.00 0.00 87 1011.7
20260506171003 25 77 3.2 8.0 0.00 0.00 0.00 87 1011.7
20260506170503 25 73 3.2 11.3 0.00 0.00 0.00 87 1011.8
20260506170003 25 72 4.8 11.3 0.00 0.00 0.00 87 1011.8
20260506165503 25 76 4.8 11.3 0.00 0.00 0.00 87 1011.8
20260506165003 25 82 3.2 11.3 0.00 0.00 0.00 86 1011.7
20260506164503 25 85 3.2 12.9 0.00 0.00 0.00 87 1011.8
20260506164004 25 81 4.8 12.9 0.00 0.00 0.00 87 1011.7
20260506163504 25 75 3.2 8.0 0.00 0.00 0.00 87 1011.7
20260506163216 25 76 3.2 8.0 0.00 0.00 0.00 87 1011.7
20260506162714 25 77 3.2 8.0 0.00 0.00 0.00 88 1011.7
20260506162003 25 83 3.2 8.0 0.00 0.00 0.00 89 1011.7
20260506161503 25 90 1.6 6.4 0.00 0.00 0.00 91 1011.7
20260506161003 25 92 1.6 6.4 0.00 0.00 0.00 91 1011.7
20260506160503 25 96 1.6 6.4 0.00 0.00 0.00 91 1011.7
20260506160003 25 107 1.6 6.4 0.00 0.00 0.00 92 1011.7
20260506155504 24 115 1.6 4.8 0.00 0.00 0.00 92 1011.6
20260506155004 24 118 1.6 6.4 0.00 0.00 0.00 92 1011.5
20260506154503 24 120 1.6 6.4 0.00 0.00 0.00 93 1011.5
20260506154003 24 120 1.6 6.4 0.00 0.00 0.00 92 1011.3
20260506153503 24 120 1.6 3.2 0.00 0.00 0.00 93 1011.1
20260506153003 24 120 1.6 4.8 0.00 0.00 0.00 94 1011.2
20260506152503 24 121 1.6 4.8 0.00 0.00 0.00 93 1011.0
20260506152003 23 122 1.6 4.8 0.00 0.00 0.00 94 1011.1
20260506151716 23 123 1.6 4.8 0.00 0.00 0.00 93 1011.0
20260506151004 23 124 1.6 4.8 0.00 0.00 0.00 94 1010.9
20260506150504 23 125 1.6 4.8 0.00 0.00 0.00 94 1010.7
20260506150004 23 125 1.6 3.2 0.00 0.00 0.00 94 1010.7
20260506145713 23 125 1.6 3.2 0.00 0.00 0.00 94 1010.8
20260506145003 23 126 1.6 4.8 0.00 0.00 0.00 94 1010.8
20260506144503 23 126 1.6 4.8 0.00 0.00 0.00 94 1010.8
20260506144003 23 126 1.6 4.8 0.00 0.00 0.00 94 1010.8
20260506143503 23 127 1.6 4.8 0.00 0.00 0.00 94 1010.8
20260506143004 23 128 1.6 4.8 0.00 0.00 0.00 94 1010.6
20260506142504 23 0 0.0 3.2 0.00 0.00 0.00 94 1010.5
20260506142003 23 0 0.0 4.8 0.00 0.00 0.00 94 1010.5
20260506141503 23 125 1.6 6.4 0.00 0.00 0.00 94 1010.2
20260506141003 23 126 1.6 6.4 0.00 0.00 0.00 94 1010.2
20260506140003 23 127 1.6 6.4 0.00 0.00 0.00 94 1010.1
20260506135503 23 129 1.6 6.4 0.00 0.00 0.00 94 1009.8
20260506135216 23 130 1.6 4.8 0.00 0.00 0.00 94 1009.7
20260506134504 23 120 1.6 6.4 0.00 0.00 0.00 95 1009.5
20260506134004 23 106 3.2 11.3 0.00 0.00 0.00 95 1009.6
20260506133503 23 111 4.8 11.3 0.00 0.00 0.00 95 1009.5
20260506133003 23 122 4.8 9.7 0.00 0.00 0.00 95 1009.4
20260506132716 23 125 3.2 8.0 0.00 0.00 0.00 95 1009.4
20260506132214 23 128 3.2 8.0 0.00 0.00 0.00 95 1009.3
20260506131503 23 133 1.6 6.4 0.00 0.00 0.00 95 1009.3
20260506131215 23 133 3.2 6.4 0.00 0.00 0.00 95 1009.3
20260506130504 23 135 1.6 4.8 0.00 0.00 0.00 95 1009.1
20260506130004 23 135 1.6 4.8 0.00 0.00 0.00 95 1009.2
20260506125714 23 136 1.6 4.8 0.00 0.00 0.00 95 1009.1
20260506125003 23 136 1.6 6.4 0.00 0.00 0.00 95 1009.1
20260506124503 23 137 1.6 6.4 0.00 0.00 0.00 95 1009.2
20260506124003 23 137 1.6 6.4 0.00 0.00 0.00 95 1009.3
20260506123503 23 137 1.6 3.2 0.00 0.00 0.00 94 1009.2
20260506123003 23 137 1.6 4.8 0.00 0.00 0.00 94 1009.3
20260506122504 23 0 0.0 4.8 0.00 0.00 0.00 94 1009.3
20260506122215 23 0 0.0 4.8 0.00 0.00 0.00 94 1009.3
20260506121503 23 137 1.6 4.8 0.00 0.00 0.00 94 1009.3
20260506121003 23 137 1.6 4.8 0.00 0.00 0.00 94 1009.2
20260506120503 23 137 1.6 4.8 0.00 0.00 0.00 94 1009.1
20260506120003 23 138 1.6 6.4 0.00 0.00 0.00 94 1009.2
20260506115715 23 137 1.6 6.4 0.00 0.00 0.00 94 1009.1
20260506115212 23 137 1.6 4.8 0.00 0.00 0.00 94 1009.1
20260506114503 23 137 1.6 4.8 0.00 0.00 0.00 94 1009.0
20260506114003 23 137 3.2 4.8 0.00 0.00 0.00 94 1009.0
20260506113504 23 137 1.6 4.8 0.00 0.00 0.00 94 1009.0
20260506113004 23 0 0.0 3.2 0.00 0.00 0.00 94 1009.0
20260506112504 23 0 0.0 3.2 0.00 0.00 0.00 94 1009.0
20260506112003 23 137 1.6 4.8 0.00 0.00 0.00 94 1008.9
20260506111505 23 137 1.6 4.8 0.00 0.00 0.00 93 1009.0
20260506111003 23 137 1.6 6.4 0.00 0.00 0.00 93 1009.0
20260506110503 23 137 3.2 6.4 0.00 0.00 0.00 93 1009.0
20260506110003 23 143 3.2 8.0 0.00 0.00 0.00 93 1009.0
20260506105004 23 172 1.6 8.0 0.00 0.00 0.00 93 1008.9
20260506104504 23 172 1.6 8.0 0.00 0.00 0.00 93 1008.8
20260506104003 23 172 1.6 4.8 0.00 0.00 0.00 93 1008.9
20260506103503 23 172 1.6 8.0 0.00 0.00 0.00 93 1008.9
20260506103215 23 172 1.6 8.0 0.00 0.00 0.00 93 1008.9
20260506102503 23 168 3.2 11.3 0.00 0.00 0.00 93 1008.8
20260506102003 23 165 3.2 12.9 0.00 0.00 0.00 93 1008.9
20260506101503 23 164 3.2 12.9 0.00 0.00 0.00 93 1009.0
20260506101217 23 166 3.2 12.9 0.00 0.00 0.00 93 1008.9
20260506100504 23 182 3.2 8.0 0.00 0.00 0.00 93 1008.8
20260506095003 23 168 4.8 12.9 0.00 0.00 0.00 93 1008.6
20260506094503 23 181 3.2 12.9 0.00 0.00 0.00 93 1008.7
20260506094003 23 198 3.2 11.3 0.00 0.00 0.00 92 1008.7
20260506093503 23 183 3.2 11.3 0.00 0.00 0.00 92 1008.7
20260506093004 23 175 4.8 14.5 0.00 0.00 0.00 92 1008.7
20260506092504 23 169 4.8 16.1 0.00 0.00 0.00 92 1008.4
20260506092003 23 170 4.8 16.1 0.00 0.00 0.00 92 1008.5
20260506091503 23 184 4.8 11.3 0.00 0.00 0.00 92 1008.5
20260506091004 23 176 3.2 12.9 0.00 0.00 0.00 92 1008.5
20260506090503 23 173 4.8 12.9 0.00 0.00 0.00 92 1008.5
20260506090003 23 181 3.2 12.9 0.00 0.00 0.00 92 1008.7
20260506085503 23 183 3.2 12.9 0.00 0.00 0.00 92 1008.7
20260506084504 23 185 4.8 12.9 0.00 0.00 0.00 92 1008.7
20260506084003 23 174 6.4 14.5 0.00 0.00 0.00 92 1008.6
20260506083503 23 169 4.8 14.5 0.00 0.00 0.00 92 1008.7
20260506083003 23 179 4.8 14.5 0.00 0.00 0.00 92 1008.6
20260506082503 23 189 4.8 16.1 0.00 0.00 0.00 92 1008.7
20260506082003 23 205 4.8 16.1 0.00 0.00 0.00 92 1008.7
20260506081503 23 190 3.2 12.9 0.00 0.00 0.00 92 1008.6
20260506081004 23 171 3.2 12.9 0.00 0.00 0.00 92 1008.7
20260506080503 23 176 4.8 20.9 0.00 0.00 0.00 92 1008.6
20260506073503 23 171 6.4 16.1 0.00 0.00 0.00 92 1009.0
20260506073003 23 172 4.8 12.9 0.00 0.00 0.00 92 1009.0
20260506072504 23 170 4.8 14.5 0.00 0.00 0.00 92 1009.1
20260506072213 23 168 4.8 14.5 0.00 0.00 0.00 92 1009.1
20260506071503 23 169 4.8 16.1 0.00 0.00 0.00 92 1009.1
20260506071214 23 165 4.8 16.1 0.00 0.00 0.00 92 1009.1
20260506062503 23 192 3.2 12.9 0.00 0.00 0.00 93 1009.4
20260506062003 23 177 3.2 12.9 0.00 0.00 0.00 93 1009.4
20260506061716 23 172 3.2 12.9 0.00 0.00 0.00 93 1009.4
20260506061003 23 151 4.8 11.3 0.00 0.00 0.00 92 1009.3
20260506060215 23 177 3.2 9.7 0.00 0.00 0.00 92 1009.4
20260506051003 24 146 4.8 12.9 0.00 0.00 0.00 92 1009.4
20260506050503 24 144 4.8 11.3 0.00 0.00 0.00 92 1009.2
20260506045003 24 157 4.8 11.3 0.00 0.00 0.00 92 1009.1
20260506044503 24 154 4.8 12.9 0.00 0.00 0.00 92 1009.0
20260506044004 24 129 4.8 12.9 0.00 0.00 0.00 92 1009.2
20260506043503 24 121 4.8 14.5 0.00 0.00 0.00 92 1009.2
20260506042504 24 103 3.2 12.9 0.00 0.00 0.00 91 1009.1
20260506042003 24 120 4.8 9.7 0.00 0.00 0.00 91 1009.2
20260506041503 24 150 4.8 12.9 0.00 0.00 0.00 91 1009.2
20260506041216 24 156 4.8 12.9 0.00 0.00 0.00 91 1009.2
20260506040503 24 154 3.2 9.7 0.00 0.00 0.00 91 1008.9
20260506040217 24 154 3.2 9.7 0.00 0.00 0.00 91 1008.9
20260506035504 24 146 4.8 11.3 0.00 0.00 0.00 91 1008.9
20260506035004 24 138 4.8 12.9 0.00 0.00 0.00 91 1008.8
20260506034003 24 138 4.8 17.7 0.00 0.00 0.00 90 1008.8
20260506033503 25 145 6.4 17.7 0.00 0.00 0.00 90 1008.7
20260506032503 25 142 4.8 16.1 0.00 0.00 0.00 90 1008.4
20260506032004 25 144 4.8 16.1 0.00 0.00 0.00 89 1008.3
20260506031504 25 158 4.8 17.7 0.00 0.00 0.00 89 1008.3
20260506031003 25 161 6.4 17.7 0.00 0.00 0.00 89 1008.3
20260506030503 25 155 4.8 11.3 0.00 0.00 0.00 89 1008.1
20260506030003 25 145 4.8 14.5 0.00 0.00 0.00 88 1008.1
20260506025503 25 143 6.4 14.5 0.00 0.00 0.00 88 1008.1
20260506025213 25 142 6.4 16.1 0.00 0.00 0.00 88 1008.1
20260506024504 25 149 6.4 19.3 0.00 0.00 0.00 87 1007.8
20260506024004 25 146 6.4 19.3 0.00 0.00 0.00 87 1007.7
20260506023504 26 144 4.8 12.9 0.00 0.00 0.00 87 1007.6
20260506023003 26 146 4.8 16.1 0.00 0.00 0.00 86 1007.5
20260506022713 26 143 4.8 16.1 0.00 0.00 0.00 86 1007.5
20260506022003 26 128 4.8 14.5 0.00 0.00 0.00 85 1007.4
20260506021503 26 126 4.8 14.5 0.00 0.00 0.00 84 1007.3
20260506021217 26 130 4.8 12.9 0.00 0.00 0.00 84 1007.4
20260506020504 26 127 4.8 11.3 0.00 0.00 0.00 83 1007.5
20260506020004 26 124 4.8 12.9 0.00 0.00 0.00 83 1007.5
20260506015716 26 118 4.8 12.9 0.00 0.00 0.00 82 1007.4
20260506015003 27 110 1.6 12.9 0.00 0.00 0.00 82 1007.3
20260506014503 27 120 1.6 9.7 0.00 0.00 0.00 81 1007.2
20260506014003 27 120 1.6 4.8 0.00 0.00 0.00 81 1007.1
20260506013503 27 120 1.6 4.8 0.00 0.00 0.00 81 1007.0
20260506012714 27 120 1.6 4.8 0.00 0.00 0.00 81 1006.9
20260506012004 27 120 1.6 6.4 0.00 0.00 0.00 80 1006.9
20260506011504 27 120 3.2 6.4 0.00 0.00 0.00 80 1006.8
20260506011003 27 122 3.2 6.4 0.00 0.00 0.00 79 1006.7
20260506010503 27 123 1.6 6.4 0.00 0.00 0.00 79 1006.8
20260506010003 27 123 1.6 6.4 0.00 0.00 0.00 79 1006.7
20260506005717 27 123 1.6 6.4 0.00 0.00 0.00 79 1006.7
20260506005214 28 123 1.6 4.8 0.00 0.00 0.00 79 1006.6
20260506004504 28 123 3.2 6.4 0.00 0.00 0.00 78 1006.5
20260506003503 28 124 1.6 6.4 0.00 0.00 0.00 77 1006.5
20260506003003 28 126 3.2 6.4 0.00 0.00 0.00 77 1006.4
20260506002212 28 128 3.2 8.0 0.00 0.00 0.00 76 1006.4
20260506001503 29 131 3.2 8.0 0.00 0.00 0.00 75 1006.4
20260506000504 29 145 3.2 8.0 0.00 0.00 0.00 74 1006.4
20260506000004 29 150 3.2 8.0 0.00 0.00 0.00 74 1006.3
20260505235503 30 150 3.2 8.0 0.00 0.00 0.00 74 1006.2
20260505235003 30 152 3.2 8.0 0.00 0.00 0.00 74 1006.3
20260505234713 30 152 3.2 8.0 0.00 0.00 0.00 73 1006.3
20260505234003 30 187 3.2 8.0 0.00 0.00 0.00 73 1006.1
20260505233503 30 176 3.2 9.7 0.00 0.00 0.00 73 1006.2
20260505233217 30 151 3.2 9.7 0.00 0.00 0.00 71 1006.1
20260505232504 30 118 3.2 6.4 0.00 0.00 0.00 72 1006.2
20260505232003 30 108 3.2 6.4 0.00 0.00 0.00 72 1006.1
20260505231716 30 107 3.2 11.3 0.00 0.00 0.00 72 1006.1
20260505231003 30 135 4.8 11.3 0.00 0.00 0.00 72 1006.0
20260505230503 29 139 3.2 11.3 0.00 0.00 0.00 72 1006.0
20260505230003 30 131 3.2 11.3 0.00 0.00 0.00 71 1006.0
20260505225713 30 121 4.8 14.5 0.00 0.00 0.00 72 1006.0
20260505225003 30 134 4.8 14.5 0.00 0.00 0.00 71 1006.0
20260505224504 30 162 3.2 11.3 0.00 0.00 0.00 72 1006.2
20260505223503 30 180 3.2 9.7 0.00 0.00 0.00 71 1006.1
20260505223003 30 187 3.2 11.3 0.00 0.00 0.00 73 1006.1
20260505222003 30 183 3.2 12.9 0.00 0.00 0.00 72 1006.2
20260505221503 30 181 4.8 14.5 0.00 0.00 0.00 72 1006.2
20260505221003 30 165 4.8 14.5 0.00 0.00 0.00 71 1006.3
20260505220504 29 159 4.8 12.9 0.00 0.00 0.00 72 1006.3
20260505220004 29 159 4.8 9.7 0.00 0.00 0.00 73 1006.3
20260505215713 29 165 4.8 11.3 0.00 0.00 0.00 73 1006.4
20260505215003 29 176 4.8 11.3 0.00 0.00 0.00 72 1006.5
20260505214503 29 181 4.8 16.1 0.00 0.00 0.00 73 1006.6
20260505213503 29 158 4.8 16.1 0.00 0.00 0.00 72 1006.8
20260505212504 30 187 4.8 12.9 0.00 0.00 0.00 71 1006.8
20260505212214 30 205 3.2 12.9 0.00 0.00 0.00 71 1006.9
20260505211717 30 194 4.8 11.3 0.00 0.00 0.00 72 1007.0
20260505211004 29 181 3.2 14.5 0.00 0.00 0.00 73 1007.0
20260505210503 29 190 3.2 12.9 0.00 0.00 0.00 73 1007.1
20260505210216 29 183 3.2 12.9 0.00 0.00 0.00 72 1007.2
20260505205503 29 166 4.8 12.9 0.00 0.00 0.00 73 1007.4
20260505205004 29 172 4.8 12.9 0.00 0.00 0.00 72 1007.3
20260505204504 29 163 6.4 12.9 0.00 0.00 0.00 73 1007.5
20260505204004 29 157 6.4 12.9 0.00 0.00 0.00 73 1007.5
20260505203503 29 180 4.8 11.3 0.00 0.00 0.00 72 1007.5
20260505203214 29 209 4.8 11.3 0.00 0.00 0.00 71 1007.7
20260505202503 29 221 4.8 17.7 0.00 0.00 0.00 73 1007.9
20260505202003 29 180 4.8 17.7 0.00 0.00 0.00 73 1007.9
20260505201503 29 166 4.8 14.5 0.00 0.00 0.00 73 1007.8
20260505201003 29 168 4.8 11.3 0.00 0.00 0.00 73 1007.9
20260505200217 28 160 6.4 16.1 0.00 0.00 0.00 74 1008.0
20260505195503 28 172 4.8 12.9 0.00 0.00 0.00 72 1008.1
20260505195003 28 202 3.2 9.7 0.00 0.00 0.00 73 1008.1
20260505194003 28 205 4.8 12.9 0.00 0.00 0.00 74 1008.3
20260505193717 28 208 4.8 12.9 0.00 0.00 0.00 74 1008.4
20260505193003 28 177 4.8 14.5 0.00 0.00 0.00 75 1008.5
20260505192717 28 179 4.8 14.5 0.00 0.00 0.00 75 1008.4
20260505192004 28 191 4.8 12.9 0.00 0.00 0.00 75 1008.5
20260505191504 28 214 4.8 16.1 0.00 0.00 0.00 77 1008.5
20260505191216 28 243 4.8 16.1 0.00 0.00 0.00 76 1008.7
20260505190714 28 250 4.8 16.1 0.00 0.00 0.00 76 1008.8
20260505190003 27 229 4.8 11.3 0.00 0.00 0.00 77 1008.9
20260505185503 27 205 4.8 9.7 0.00 0.00 0.00 78 1009.0
20260505185003 27 225 4.8 11.3 0.00 0.00 0.00 77 1009.0
20260505184504 27 243 4.8 11.3 0.00 0.00 0.00 78 1009.1
20260505184004 27 245 4.8 16.1 0.00 0.00 0.00 80 1009.3
20260505183504 27 247 4.8 16.1 0.00 0.00 0.00 79 1009.1
20260505183003 27 240 4.8 12.9 0.00 0.00 0.00 79 1009.3
20260505182503 27 232 4.8 14.5 0.00 0.00 0.00 79 1009.3
20260505182003 26 220 4.8 14.5 0.00 0.00 0.00 79 1009.4
20260505181503 26 200 4.8 11.3 0.00 0.00 0.00 80 1009.4
20260505181003 26 223 4.8 16.1 0.00 0.00 0.00 80 1009.4